Regional Weather Roundup
Issued by NWS

Home | Current Version | Previous Version | Text Only | Print | Product List | Glossary Off
Versions: 1 2 3 4 5 6 7 8 9 10 11 12 13 14 15 16 17 18 19 20 21 22 23 24 25 26 27 28 29 30 31 32 33 34 35 36 37 38 39 40 41 42 43 44 45 46 47 48 49 50

000
ASUS43 KLSX 300557
RWRMO

WEATHER SUMMARY FOR MISSOURI
NATIONAL WEATHER SERVICE SPRINGFIELD MO
100 AM CDT SAT JUL 30 2016

NOTE: "FAIR" INDICATES FEW OR NO CLOUDS BELOW 12,000 FEET WITH NO
       SIGNIFICANT WEATHER AND/OR OBSTRUCTIONS TO VISIBILITY.
       CURRENT SKY AND/OR WEATHER CONDITIONS ARE NOT AVAILABLE FOR
       CHILLICOTHE AND FARMINGTON.

MOZ001>031-035>038-043-044-053-054-300700-
...NORTHERN AND WESTERN MISSOURI...

CITY           SKY/WX    TMP DP  RH WIND       PRES   REMARKS
KANSAS CTY INT CLEAR     67  60  78 NE6       30.03R
6HR MIN TEMP:  67; 6HR MAX TEMP:  81;

LEE`S SUMMIT   CLEAR     71  62  73 N6        30.03R
6HR MIN TEMP:  70; 6HR MAX TEMP:  82;

ST JOSEPH      PTCLDY    66  62  87 CALM      30.02S
6HR MIN TEMP:  65; 6HR MAX TEMP:  81;


$$
MOZ066>068-077>081-088>096-101>105-300700-
...SOUTHWEST MISSOURI...

CITY           SKY/WX    TMP DP  RH WIND       PRES   REMARKS
SPRINGFIELD    PTCLDY    72  68  87 CALM      30.01S
6HR MIN TEMP:  72; 6HR MAX TEMP:  83;


$$
MOZ032>034-039>042-045>050-055>058-069>072-300700-
...CENTRAL MISSOURI...

CITY           SKY/WX    TMP DP  RH WIND       PRES   REMARKS
COLUMBIA       NOT AVBL
JEFFERSON CITY CLEAR     70  67  90 CALM      29.98R
6HR MIN TEMP:  69; 6HR MAX TEMP:  83;

SEDALIA        CLEAR     71  65  81 CALM      30.01S
6HR MIN TEMP:  70; 6HR MAX TEMP:  83;


$$
MOZ051-052-059>065-300700-
...EAST CENTRAL MISSOURI...

CITY           SKY/WX    TMP DP  RH WIND       PRES   REMARKS
ST LOUIS INTL  PTCLDY    76  67  73 CALM      29.96S
6HR MIN TEMP:  76; 6HR MAX TEMP:  83;


$$
MOZ072>076-082>087-097>100-106>115-300700-
...SOUTH CENTRAL AND SOUTHEAST MISSOURI...

CITY           SKY/WX    TMP DP  RH WIND       PRES   REMARKS
CAPE GIRARDEAU CLOUDY    70  68  93 SW6       29.95S
6HR MIN TEMP:  69; 6HR MAX TEMP:  73; 6HR PCP:  0.10;

POPLAR BLUFF   CLOUDY    71  70  96 SW5       29.96S
6HR MIN TEMP:  71; 6HR MAX TEMP:  75; 6HR PCP:  0.02;

WEST PLAINS    CLOUDY    70  67  90 W3        30.02S
6HR MIN TEMP:  70; 6HR MAX TEMP:  75;


$$



USA.gov is the U.S. government's official web portal to all federal, state and local government web resources and services.